Home > Time Zones > World Clock > Weather > Egypt > Cairo > Past weeks

Flag for Egypt Weather past 2 weeks in Cairo, Egypt

Now
79 °F

Clear.


Feels Like: 81 °F
Forecast: 73 / 102 °F
Wind: No wind

Location: Cairo Airport

Current Time: Sep 3, 2014 at 9:01:21 AM

Latest Report: Sep 3, 2014 at 8:30 AM


Visibility: 4 mi

Pressure: 29.86 "Hg

Humidity: 70%

Dew point: 68 °F

Location of CairoLocation

Historic Weather in Cairo — Graph

°F

Cairo temperature yesterday

Maximum temperature yesterday: 91 °F (at 3:00 PM)
Minimum temperature yesterday: 73 °F (at 6:30 AM)
Average temperature yesterday: 83 °F

Past Weeks' High & Low Weather Summary

 TemperatureHumidityPressure
High100 °F (Aug 24, 4:00 PM)89% (Aug 22, 7:00 AM)29.98 "Hg (Aug 22, 7:00 AM)
Low73 °F (Aug 29, 7:00 AM)18% (Aug 26, 4:30 PM)29.71 "Hg (Aug 23, 5:30 PM)
Average85 °F57%29.82 "Hg
* Reported Aug 19 8:00 AM — Sep 3 8:00 AM, Cairo, Weather by CustomWeather, © 2014

Note: Actual official high and low records may vary slightly from our data, if they occured in-between our weather recording intervals... More about our weather records

Advertising

Cairo weather history for previous 24 hours

 ConditionsComfort  
Time TempWeatherWind HumidityBarometerVisibility
8:00 AM
Sep 3
77 °FClear.No wind74%29.86 "Hg4 mi
7:30 AM75 °FClear.No wind78%29.86 "Hg4 mi
7:00 AM75 °FClear.No wind74%29.83 "Hg4 mi
6:30 AM75 °FClear.No wind74%29.83 "Hg4 mi
6:00 AM75 °FClear.No wind74%29.83 "Hg10 mi
5:30 AM75 °FClear.No wind74%29.83 "Hg10 mi
5:00 AM77 °FClear.No wind74%29.83 "Hg10 mi
4:30 AM77 °FClear.No wind74%29.83 "Hg10 mi
4:00 AM77 °FClear.No wind74%29.83 "Hg10 mi
3:30 AM77 °FClear.No wind74%29.83 "Hg10 mi
3:00 AM77 °FClear.No wind74%29.86 "Hg10 mi
2:30 AM77 °FClear.No wind74%29.86 "Hg10 mi
2:00 AM79 °FClear.No wind70%29.86 "Hg10 mi
1:30 AM79 °FClear.No wind65%29.86 "Hg10 mi
1:00 AM79 °FClear.No wind65%29.86 "Hg10 mi
12:00 AM81 °FClear.No wind62%29.86 "Hg10 mi
11:30 PM
Sep 2
82 °FClear.No wind55%29.86 "Hg10 mi
11:00 PM82 °FClear.No wind55%29.86 "Hg10 mi
10:00 PM84 °FClear.3 mph51%29.86 "Hg10 mi
9:30 PM86 °FClear.3 mph49%29.86 "Hg10 mi
9:00 PM86 °FClear.3 mph49%29.86 "Hg10 mi
8:30 PM86 °FClear.7 mph49%29.86 "Hg10 mi
8:00 PM88 °FClear.3 mph40%29.83 "Hg10 mi
7:30 PM88 °FPassing clouds.10 mph40%29.83 "HgN/A
7:00 PM88 °FPassing clouds.10 mph40%29.80 "HgN/A
6:30 PM91 °FPassing clouds.9 mph36%29.77 "HgN/A
6:00 PM91 °FPassing clouds.9 mph36%29.77 "HgN/A
5:30 PM91 °FPassing clouds.7 mph36%29.77 "HgN/A
5:00 PM91 °FPassing clouds.7 mph36%29.77 "HgN/A
4:30 PM91 °FPassing clouds.8 mph34%29.77 "HgN/A
4:00 PM91 °FPassing clouds.10 mph34%29.77 "HgN/A
3:30 PM91 °FPassing clouds.9 mph36%29.80 "HgN/A
3:00 PM91 °FPassing clouds.10 mph36%29.80 "HgN/A
2:30 PM90 °FSunny.6 mph38%29.80 "Hg10 mi
2:00 PM90 °FSunny.6 mph38%29.80 "Hg10 mi
1:30 PM88 °FSunny.5 mph46%29.83 "Hg10 mi
1:00 PM86 °FSunny.5 mph49%29.83 "Hg10 mi
12:30 PM84 °FPassing clouds.5 mph51%29.83 "HgN/A
12:00 PM84 °FPassing clouds.5 mph51%29.83 "HgN/A
11:30 AM84 °FScattered clouds.5 mph51%29.83 "HgN/A
11:00 AM82 °FScattered clouds.5 mph55%29.83 "HgN/A
10:30 AM81 °FScattered clouds.5 mph58%29.83 "HgN/A
10:00 AM81 °FScattered clouds.5 mph58%29.83 "HgN/A
9:30 AM81 °FScattered clouds.3 mph62%29.83 "HgN/A
9:00 AM79 °FSunny.3 mph65%29.83 "Hg10 mi
Weather by CustomWeather, © 2014

See weather overviewHow to use our weather pages